TimeEDT,TemperatureF,Dew PointF,Humidity,Sea Level PressureIn,VisibilityMPH,Wind Direction,Wind SpeedMPH,Gust SpeedMPH,PrecipitationIn,Events,Conditions,WindDirDegrees,DateUTC
12:15 AM,57.2,53.6,88,30.05,10.0,Calm,Calm,-,N/A,,Clear,0,2013-07-12 04:15:00
12:35 AM,59.0,53.6,82,30.06,10.0,Calm,Calm,-,N/A,,Clear,0,2013-07-12 04:35:00
12:55 AM,57.2,53.6,88,30.05,10.0,Calm,Calm,-,N/A,,Clear,0,2013-07-12 04:55:00
1:15 AM,57.2,53.6,88,30.05,10.0,North,3.5,-,N/A,,Clear,360,2013-07-12 05:15:00
1:35 AM,57.2,53.6,88,30.05,10.0,North,4.6,-,N/A,,Clear,10,2013-07-12 05:35:00
1:55 AM,57.2,53.6,88,30.05,10.0,North,3.5,-,N/A,,Clear,10,2013-07-12 05:55:00
2:15 AM,57.2,53.6,88,30.06,10.0,North,4.6,-,N/A,,Clear,350,2013-07-12 06:15:00
2:35 AM,57.2,53.6,88,30.06,10.0,NNE,4.6,-,N/A,,Clear,20,2013-07-12 06:35:00
2:55 AM,55.4,53.6,94,30.06,10.0,NNE,5.8,-,N/A,,Clear,30,2013-07-12 06:55:00
3:15 AM,57.2,53.6,88,30.06,10.0,NNE,5.8,-,N/A,,Partly Cloudy,20,2013-07-12 07:15:00
3:35 AM,57.2,53.6,88,30.06,10.0,NNE,5.8,-,N/A,,Scattered Clouds,20,2013-07-12 07:35:00
3:55 AM,57.2,53.6,88,30.06,10.0,NNE,5.8,-,N/A,,Scattered Clouds,30,2013-07-12 07:55:00
4:15 AM,57.2,53.6,88,30.05,10.0,NNE,8.1,-,N/A,,Clear,30,2013-07-12 08:15:00
4:35 AM,59.0,55.4,88,30.06,10.0,NE,9.2,-,N/A,,Mostly Cloudy,40,2013-07-12 08:35:00
4:55 AM,59.0,55.4,88,30.05,10.0,NNE,10.4,-,N/A,,Overcast,30,2013-07-12 08:55:00
5:15 AM,59.0,55.4,88,30.06,10.0,NNE,10.4,-,N/A,,Overcast,30,2013-07-12 09:15:00
5:35 AM,59.0,53.6,82,30.07,10.0,NNE,9.2,-,N/A,,Mostly Cloudy,30,2013-07-12 09:35:00
5:55 AM,57.2,55.4,94,30.06,10.0,NNE,10.4,-,N/A,,Mostly Cloudy,30,2013-07-12 09:55:00
6:15 AM,57.2,53.6,88,30.07,10.0,NNE,9.2,-,N/A,,Mostly Cloudy,30,2013-07-12 10:15:00
6:35 AM,57.2,53.6,88,30.07,10.0,NNE,9.2,-,N/A,,Partly Cloudy,30,2013-07-12 10:35:00
6:55 AM,59.0,55.4,88,30.08,10.0,NNE,10.4,-,N/A,,Scattered Clouds,30,2013-07-12 10:55:00
7:15 AM,59.0,55.4,88,30.09,10.0,NNE,10.4,-,N/A,,Partly Cloudy,30,2013-07-12 11:15:00
7:35 AM,60.8,55.4,82,30.09,10.0,NE,10.4,-,N/A,,Mostly Cloudy,40,2013-07-12 11:35:00
7:55 AM,60.8,55.4,82,30.09,10.0,NE,10.4,-,N/A,,Scattered Clouds,40,2013-07-12 11:55:00
8:15 AM,62.6,55.4,77,30.11,10.0,NE,10.4,-,N/A,,Scattered Clouds,40,2013-07-12 12:15:00
8:35 AM,64.4,57.2,77,30.11,10.0,NE,11.5,-,N/A,,Mostly Cloudy,40,2013-07-12 12:35:00
8:55 AM,64.4,57.2,77,30.12,10.0,NE,13.8,-,N/A,,Scattered Clouds,50,2013-07-12 12:55:00
9:15 AM,66.2,57.2,73,30.12,10.0,NE,11.5,-,N/A,,Mostly Cloudy,40,2013-07-12 13:15:00
9:35 AM,66.2,57.2,73,30.11,10.0,NE,11.5,-,N/A,,Mostly Cloudy,40,2013-07-12 13:35:00
9:55 AM,69.8,59.0,68,30.11,10.0,NE,6.9,-,N/A,,Scattered Clouds,40,2013-07-12 13:55:00
10:15 AM,69.8,59.0,68,30.11,10.0,East,6.9,-,N/A,,Scattered Clouds,80,2013-07-12 14:15:00
10:35 AM,71.6,59.0,64,30.12,10.0,ENE,8.1,-,N/A,,Overcast,70,2013-07-12 14:35:00
10:55 AM,71.6,60.8,69,30.11,10.0,NNE,8.1,-,N/A,,Overcast,30,2013-07-12 14:55:00
11:15 AM,73.4,60.8,65,30.11,10.0,ENE,10.4,-,N/A,,Mostly Cloudy,60,2013-07-12 15:15:00
11:35 AM,73.4,60.8,65,30.12,10.0,NNE,8.1,-,N/A,,Overcast,30,2013-07-12 15:35:00
11:55 AM,73.4,60.8,65,30.12,10.0,East,9.2,-,N/A,,Mostly Cloudy,80,2013-07-12 15:55:00
12:15 PM,75.2,59.0,57,30.13,10.0,ENE,8.1,-,N/A,,Mostly Cloudy,70,2013-07-12 16:15:00
12:35 PM,75.2,59.0,57,30.12,10.0,East,9.2,-,N/A,,Overcast,80,2013-07-12 16:35:00
12:55 PM,75.2,57.2,53,30.12,10.0,East,11.5,-,N/A,,Overcast,80,2013-07-12 16:55:00
1:15 PM,75.2,57.2,53,30.12,10.0,ENE,9.2,-,N/A,,Mostly Cloudy,70,2013-07-12 17:15:00
1:35 PM,75.2,57.2,53,30.11,10.0,ENE,8.1,-,N/A,,Mostly Cloudy,60,2013-07-12 17:35:00
1:55 PM,75.2,59.0,57,30.12,10.0,NE,9.2,-,N/A,,Partly Cloudy,50,2013-07-12 17:55:00
2:15 PM,75.2,57.2,53,30.12,10.0,NE,10.4,-,N/A,,Clear,50,2013-07-12 18:15:00
2:35 PM,75.2,57.2,53,30.12,10.0,East,9.2,-,N/A,,Clear,80,2013-07-12 18:35:00
2:55 PM,75.2,59.0,57,30.11,10.0,ENE,9.2,-,N/A,,Partly Cloudy,60,2013-07-12 18:55:00
3:15 PM,73.4,59.0,61,30.11,10.0,NE,6.9,-,N/A,,Partly Cloudy,40,2013-07-12 19:15:00
3:35 PM,73.4,59.0,61,30.11,10.0,NE,10.4,-,N/A,,Scattered Clouds,50,2013-07-12 19:35:00
3:55 PM,73.4,59.0,61,30.11,10.0,ENE,6.9,-,N/A,,Mostly Cloudy,60,2013-07-12 19:55:00
4:15 PM,73.4,60.8,65,30.11,10.0,East,6.9,-,N/A,,Scattered Clouds,80,2013-07-12 20:15:00
4:35 PM,75.2,60.8,61,30.11,10.0,East,6.9,-,N/A,,Partly Cloudy,80,2013-07-12 20:35:00
4:55 PM,73.4,60.8,65,30.10,10.0,East,8.1,-,N/A,,Partly Cloudy,80,2013-07-12 20:55:00
5:15 PM,73.4,60.8,65,30.11,10.0,East,5.8,-,N/A,,Clear,80,2013-07-12 21:15:00
5:35 PM,73.4,60.8,65,30.11,10.0,ENE,6.9,-,N/A,,Partly Cloudy,70,2013-07-12 21:35:00
5:55 PM,73.4,60.8,65,30.11,10.0,East,6.9,-,N/A,,Mostly Cloudy,80,2013-07-12 21:55:00
6:15 PM,73.4,62.6,69,30.11,10.0,East,5.8,-,N/A,,Scattered Clouds,100,2013-07-12 22:15:00
6:35 PM,73.4,60.8,65,30.10,10.0,East,10.4,-,N/A,,Mostly Cloudy,80,2013-07-12 22:35:00
6:55 PM,73.4,60.8,65,30.11,10.0,ESE,10.4,-,N/A,,Scattered Clouds,110,2013-07-12 22:55:00
7:15 PM,73.4,60.8,65,30.11,10.0,East,9.2,-,N/A,,Partly Cloudy,90,2013-07-12 23:15:00
7:35 PM,71.6,60.8,69,30.12,10.0,East,6.9,-,N/A,,Mostly Cloudy,80,2013-07-12 23:35:00
7:55 PM,71.6,60.8,69,30.13,10.0,East,4.6,-,N/A,,Overcast,80,2013-07-12 23:55:00
8:15 PM,69.8,60.8,73,30.13,10.0,NE,3.5,-,N/A,,Overcast,40,2013-07-13 00:15:00
8:35 PM,68.0,62.6,83,30.13,10.0,NNE,3.5,-,N/A,,Overcast,20,2013-07-13 00:35:00
8:55 PM,68.0,62.6,83,30.13,10.0,ENE,4.6,-,N/A,,Overcast,60,2013-07-13 00:55:00
9:15 PM,68.0,62.6,83,30.13,10.0,NE,4.6,-,N/A,,Overcast,50,2013-07-13 01:15:00
9:35 PM,68.0,62.6,83,30.14,10.0,NE,5.8,-,N/A,,Overcast,40,2013-07-13 01:35:00
9:55 PM,68.0,60.8,78,30.14,10.0,NE,5.8,-,N/A,,Mostly Cloudy,50,2013-07-13 01:55:00
10:15 PM,66.2,60.8,83,30.15,10.0,NE,5.8,-,N/A,,Scattered Clouds,50,2013-07-13 02:15:00
10:35 PM,66.2,60.8,83,30.16,10.0,NE,5.8,-,N/A,,Scattered Clouds,50,2013-07-13 02:35:00
10:55 PM,66.2,59.0,78,30.16,10.0,NE,6.9,-,N/A,,Scattered Clouds,50,2013-07-13 02:55:00
11:15 PM,64.4,59.0,83,30.16,10.0,NE,6.9,-,N/A,,Clear,50,2013-07-13 03:15:00
11:35 PM,62.6,57.2,82,30.16,10.0,NE,5.8,-,N/A,,Clear,40,2013-07-13 03:35:00
11:55 PM,64.4,57.2,77,30.16,10.0,NE,9.2,-,N/A,,Clear,50,2013-07-13 03:55:00